Miscellaneous Local Product
Issued by NWS North Platte, NE

Home | Current Version | Previous Version | Graphics & Text | Print | Product List | Glossary On
Versions: 1 2 3 4 5 6 7 8 9 10 11 12 13 14 15 16 17 18 19 20 21 22 23 24 25 26 27 28 29 30 31 32 33 34 35 36 37 38 39 40 41 42 43 44 45 46 47 48 49 50
000
AXUS43 KLBF 021410
MISLBF


WESTERN AND NORTH CENTRAL NEBRASKA HOURLY WEATHER ROUNDUP
NATIONAL WEATHER SERVICE NORTH PLATTE NE
900 AM CDT WED SEP 02 2015

NOTE: "FAIR" INDICATES FEW OR NO CLOUDS BELOW 12,000 FEET WITH NO
SIGNIFICANT WEATHER AND/OR OBSTRUCTIONS TO VISIBILITY.

NOTE: STATIONS NOT REPORTING VARIABLES SUCH AS SKY/WEATHER OR
PRESSURE ARE PROVIDED BY THE NEBRASKA DEPARTMENT OF
ROADS...RAWS...AND APRS NETWORKS...AND ARE NOT UNDER
NATIONAL WEATHER SERVICE QUALITY CONTROL.

...OBSERVATIONS IN AND NEAR THE EASTERN PANHANDLE OF NEBRASKA...

CITY           SKY/WX    TMP DP  RH WIND       PRES   REMARKS
PINE RIDGE     MOSUNNY   64  49  57 W3        29.92R
CHADRON        MOSUNNY   69  47  45 SW3       29.92R
ALLIANCE       MOSUNNY   61  49  64 SW3       29.97S
SIDNEY         MOSUNNY   69  44  40 MISG      30.03R
CRESCENT LAKE    N/A     71  47  43 NW6         N/A
BIG SPRINGS      N/A     63  55  74 W5          N/A
$$

...OBSERVATIONS IN NORTH CENTRAL NEBRASKA...

CITY           SKY/WX    TMP DP  RH WIND       PRES   REMARKS
VALENTINE      MOSUNNY   65  57  75 SW6       29.86S
THEDFORD       SUNNY     72  60  66 SW3       29.91S
AINSWORTH      SUNNY     72  62  71 SW8       29.88R
O`NEILL        SUNNY     71  67  85 S7        29.87S
ORD            SUNNY     70  62  76 E5        29.87F
BROKEN BOW     SUNNY     71  64  78 SE5       29.89S
SPRINGVIEW       N/A     66  64  92 CALM        N/A
SARGENT          N/A     67  64  90 CALM        N/A
CHAMBERS         N/A     75  66  74 S3          N/A
EWING            N/A     72  63  73 S3          N/A
$$

...OBSERVATIONS IN SOUTHWEST NEBRASKA AND FAR NORTHEAST COLORADO...

CITY           SKY/WX    TMP DP  RH WIND       PRES   REMARKS
WRAY           CLOUDY    66  54  64 SW7       30.00R
HOLYOKE        FAIR      64  54  68 W5        29.99R
IMPERIAL       SUNNY     67  54  63 SW3       29.97R
OGALLALA       SUNNY     63  54  71 CALM      29.95S
NORTH PLATTE   SUNNY     68  62  81 CALM      29.91S
MCCOOK           N/A     67  59  75 SW6       29.92R
LEXINGTON      SUNNY     70  63  77 S5        29.91S
PAXTON           N/A     61  58  90 CALM        N/A
BRADY            N/A     67  62  85 CALM        N/A
CALLAWAY         N/A     71  69  93 CALM        N/A
$$

...OBSERVATIONS IN CENTRAL LINCOLN COUNTY AREA...

CITY           SKY/WX    TMP DP  RH WIND       PRES   REMARKS
N.P. AIRPORT   SUNNY     68  62  81 CALM      29.91S
N.P. DOWNTOWN    N/A     69  60  72 CALM        N/A
N.P. SOUTHEAST   N/A     68  59  73 CALM        N/A
N.P. HILLCREST   N/A     66  60  81 NW3         N/A
$$

...SOME OBSERVATIONS FROM AROUND THE REGION...

CITY           SKY/WX    TMP DP  RH WIND       PRES   REMARKS
DENVER         MOSUNNY   70  45  40 SW8       30.12R
LARAMIE        SUNNY     58  42  55 S10       30.25S
CHEYENNE       SUNNY     70  42  36 W16G23    30.14R
SCOTTSBLUFF    SUNNY     64  49  57 W3        29.99R
RAPID CITY     PTSUNNY   69  57  65 CALM      29.86S
PIERRE         FOG       62  62 100 CALM      29.79R VSB<1/4
WINNER         FAIR      73  61  65 SW6       29.82S
SIOUX FALLS    SUNNY     72  67  84 S10       29.86F
OMAHA          MOSUNNY   77  68  73 S17       29.92S
GRAND ISLAND   SUNNY     76  60  57 S9        29.90S
KANSAS CITY    CLOUDY    72  67  84 NE5       30.07R
WICHITA        MOSUNNY   76  65  68 S15       30.01S
HAYS           SUNNY     77  57  50 S15       29.94S
LIBERAL        SUNNY     77  55  47 SW15G21   30.01S
GOODLAND       SUNNY     73  55  53 W6        29.98S
$$



USA.gov is the U.S. government's official web portal to all federal, state and local government web resources and services.